Probability
0 0 0 0 0 0 0 0 0 0 0 0 0 0 0 0 0 0 0 0 0 0 0 0 0 0 0 0 0 0 0 0 0 0 0 0 0 0
0 0 0 0 0 0 0 0 0 0 0 0 0 0 0 0 0 0 0 0 0 0 0 0 0 0 0 0 0 0 0 0 0 0 0 0 0 0
0 0 0 0 0 0 0 0 0 0 0 0 0 0 0 0 0 0 0 0 0 0 0 0 0 0 0 0 0 0 0 0 0 0 0 0 0 0
0 0 0 0 0 0 0 0 0 0 0 0 0 0 0 0 0 0 0 0 0 0 0 0 0 0 0 0 0 0 0 0 0 0 0 0 0 0
0 0 0 0 0 0 0 0 0 0 0 0 0 0 0 0 0 0 0 0 0 0 0 0 0 0 0 0 0 0 0 0 0 0 0 0 0 0
0 0 0 0 0 0 0 0 0 0 0 0 0 0 0 0 0 0 0 0 0 0 0 0 0 0 0 0 0 0 0 0 0 0 0 0 0 0
0 0 0 0 0 0 0 0 0 0 0 0 0 0 0 0 0 0 0 0 0 0 0 0 0 0 0 0 0 0 0 0 0 0 0 0 0 0
0 0 0 0 0 0 0 0 0 0 0 0 0 0 0 0 0 0 0 0 0 0 0 0 0 0 0 0 0 0 0 0 0 0 0 0 0 0
0 0 0 0 0 0 0 0 0 0 0 0 0 0 0 0 0 0 0 0 0 0 0 0 0 0 0 0 0 0 0 0 0 0 0 0 0 0
0 0 0 0 0 0 0 0 0 0 0 0 0 0 0 0 0 0 0 0 0 0 0 0 0 0 0 0 0 0 0 0 0 0 0 0 0 0
0 0 0 0 0 0 0 0 0 0 0 0 0 0 0 0 0 0 0 0 0 0 0 0 0 0 0 0 0 0 0 0 0 0 0 0 0 0
0 0 0 0 0 0 0 0 0 0 0 0 0 0 0 0 0 0 0 0 0 0 0 0 0 0 0 0 0 0 0 0 0 0 0 0 0 0
0 0 0 0 0 0 0 0 0 0 0 0 0 0 0 0 0 0 0 0 0 0 0 0 0 0 0 0 0 0 0 0 0 0 0 0 0 0
0 0 0 0 0 0 0 0 0 0 0 0 0 0 0 0 0 0 0 0 0 0 0 0 0 0 0 0 0 0 0 0 0 0 0 0 0 0
0 0 0 0 0 0 0 0 0 0 0 0 0 0 0 0 0 0 0 0 0 0 0 0 0 0 0 0 0 0 0 0 0 0 0 0 0 0
0 0 0 0 0 0 0 0 0 0 0 0 0 0 0 0 0 0 0 0 0 0 0 0 0 0 0 0 0 0 0 0 0 0 0 0 0 0
0 0 0 0 0 0 0 0 0 0 0 0 0 0 0 0 0 0 0 0 0 0 0 0 0 0 0 0 0 0 0 0 0 0 0 0 0 0
0 0 0 0 0 0 0 0 0 0 0 0 0 0 0 0 0 0 0 0 0 0 0 0 0 0 0 0 0 0 0 0 0 0 0 0 0 0
0 0 0 0 0 0 0 0 0 0 0 0 0 0 0 0 0 0 0 0 0 0 0 0 0 0 0 0 0 0 0 0 0 0 0 0 0 0
0 0 0 0 0 0 0 0 0 0 0 0 0 0 0 0 0 0 0 0 0 0 0 0 0 0 0 0 0 0 0 0 0 0 0 0 0 0
0 0 0 0 0 0 0 0 0 0 0 0 0 0 0 0 0 0 0 0 0 0 0 0 0 0 0 0 0 0 0 0 0 0 0 0 0 0
0 0 0 0 0 0 0 0 0 0 0 0 0 0 0 0 0 0 0 0 0 0 0 0 0 0 0 0 0 0 0 0 0 0 0 0 0 0
0 0 0 0 0 0 0 0 0 0 0 0 0 0 0 0 0 0 0 0 0 0 0 0 0 0 0 0 0 0 0 0 0 0 0 0 0 0
Wind_Speed
2 3 2 3 3 3 3 3 4 7 7 4 3 3 3 3 7 6 6 11 14 14 15 16 16 17 16 17 17 18 18 18 18 18 17 16 16 16
2 3 3 3 3 3 3 3 3 5 7 5 5 5 5 5 8 6 7 13 13 13 15 16 16 16 16 17 17 17 18 18 19 18 17 16 15 15
3 3 4 4 3 3 3 3 3 4 8 8 5 5 5 6 6 6 6 6 7 13 15 15 15 16 16 17 17 17 17 18 18 17 16 16 15 15
5 4 4 4 4 4 4 4 4 4 6 10 7 5 6 6 6 7 7 6 6 12 15 15 15 16 16 17 17 17 17 17 17 16 16 15 16 15
4 4 5 4 5 4 5 4 4 5 5 7 8 6 5 5 6 7 7 6 7 9 12 13 15 16 16 16 16 16 16 17 16 15 15 15 15 15
5 5 5 4 5 5 5 5 5 6 6 6 7 6 5 5 5 6 7 6 7 7 9 11 13 15 15 16 16 16 16 16 15 15 15 15 15 15
5 5 5 6 8 7 6 6 6 5 6 6 6 6 6 6 6 6 8 8 7 5 6 6 7 6 8 12 14 15 16 16 15 16 15 14 14 13
6 6 5 5 8 10 10 10 9 7 7 7 6 7 8 7 7 7 7 8 8 3 5 7 5 6 6 6 12 16 15 15 15 15 15 14 13 13
6 6 6 6 6 6 8 10 9 10 10 8 8 8 9 8 8 8 8 8 9 6 6 8 5 7 7 8 15 15 15 15 15 15 14 13 13 13
5 6 6 7 7 8 7 8 7 7 9 6 6 8 7 7 7 8 8 9 8 5 4 7 6 6 7 7 12 14 15 15 15 15 14 14 13 13
5 5 6 6 11 13 9 8 8 7 10 12 12 12 14 13 10 6 6 6 7 6 3 4 5 7 7 6 7 12 13 14 14 14 14 14 13 13
5 5 6 10 12 14 8 7 9 9 8 9 9 10 9 9 10 6 5 5 6 6 3 4 5 5 6 5 5 6 7 11 14 15 14 14 14 8
5 5 6 13 14 14 12 7 10 10 7 7 7 7 6 5 5 5 5 5 6 6 4 4 5 5 5 7 6 6 6 6 7 9 11 14 14 10
5 5 7 13 14 14 10 11 14 10 5 6 6 6 6 6 6 7 7 6 6 8 7 6 5 5 5 6 7 6 6 6 6 7 7 10 11 11
5 9 11 13 12 9 11 14 9 5 5 5 6 6 6 6 6 6 6 6 7 6 6 6 6 6 5 6 7 7 7 6 5 6 7 6 6 5
5 7 10 11 9 8 8 7 5 5 5 5 6 6 6 5 5 5 6 7 6 6 5 5 5 6 6 7 7 8 6 6 6 7 6 6 6 5
5 4 4 4 5 5 5 5 5 5 5 5 5 6 6 6 6 5 5 5 5 6 7 5 4 4 6 6 6 6 6 6 7 7 6 7 6 5
5 3 4 4 4 5 6 6 5 5 5 5 5 5 6 6 6 5 5 5 6 6 6 6 6 6 4 4 6 6 5 6 6 5 5 6 7 6
3 3 3 4 4 5 5 5 6 6 5 5 5 5 6 6 6 6 5 5 6 6 6 5 5 4 6 7 5 4 5 6 5 5 5 5 7 7
2 3 3 4 4 5 5 5 6 6 5 5 5 5 5 5 5 6 6 6 6 6 7 5 4 4 5 6 6 7 8 6 5 5 6 5 6 8
3 3 3 4 4 4 5 5 6 6 5 5 5 5 5 5 5 6 6 7 6 6 7 7 6 7 5 4 5 6 5 6 7 6 6 5 6 5
4 4 4 4 4 4 5 5 5 6 6 5 5 5 5 5 6 7 6 6 6 6 7 7 6 5 3 4 6 7 7 7 7 9 8 7 4 4
4 4 4 4 4 4 4 5 6 6 5 5 5 5 5 5 5 5 6 6 6 6 6 6 5 4 4 4 5 6 7 8 6 6 6 8 9 9
Wind_Direction
305 300 301 306 310 303 300 292 287 295 296 288 299 301 311 309 315 314 310 313 316 316 317 317 317 316 316 317 316 316 315 313 312 310 307 303 297 296
324 327 324 315 315 313 304 297 286 283 287 297 296 306 314 315 316 313 308 315 313 314 315 315 315 315 317 317 315 314 313 312 311 311 311 309 307 303
329 330 326 322 317 314 308 300 292 285 285 293 293 303 307 308 312 310 307 305 305 310 312 313 314 316 317 317 316 315 315 315 314 313 315 313 311 311
330 330 323 323 322 317 314 308 300 290 284 293 302 305 301 303 310 309 310 307 303 309 313 314 316 316 315 315 315 315 316 316 313 312 313 315 314 311
334 329 324 326 321 318 314 310 307 307 295 290 297 301 302 310 313 307 303 301 304 308 313 314 315 313 313 316 319 319 320 318 317 316 317 317 315 311
347 342 336 333 325 323 320 320 317 313 307 298 296 300 302 308 309 311 310 308 307 310 307 310 312 313 312 314 316 317 316 316 316 318 318 315 313 312
344 342 337 336 330 327 324 322 318 311 308 303 298 301 305 316 312 310 304 308 301 295 304 307 310 308 309 310 311 312 313 313 315 317 314 312 311 312
339 337 334 334 331 330 327 322 318 312 308 304 299 302 304 305 305 304 306 308 304 307 309 303 305 300 301 298 303 310 312 312 313 313 312 310 311 313
336 334 333 332 328 326 325 325 322 318 314 307 301 301 304 308 308 304 300 296 293 302 306 296 298 294 297 296 305 308 310 313 314 311 311 313 314 314
339 338 333 334 335 332 329 325 320 320 321 319 305 305 309 311 302 298 297 298 296 293 301 290 298 298 302 300 301 306 313 315 314 313 313 312 313 314
336 336 330 329 333 339 337 327 324 324 329 324 318 315 315 316 316 310 306 304 301 299 302 293 302 309 299 289 299 309 314 316 317 317 316 316 316 317
329 330 329 331 334 338 336 328 325 325 326 325 323 320 317 314 317 308 298 293 298 294 296 308 300 315 304 293 301 309 309 310 313 315 315 316 316 316
327 330 328 330 334 336 337 331 324 327 325 321 317 317 319 320 323 320 309 294 288 282 290 304 295 298 286 298 302 303 305 310 311 309 311 311 312 313
321 322 323 329 334 337 337 334 335 336 327 322 320 320 322 323 323 319 312 304 290 283 283 285 280 284 290 292 292 300 307 306 308 309 310 308 309 307
322 323 326 330 334 338 337 338 341 338 330 326 321 319 318 314 315 315 314 312 304 293 289 286 282 282 276 275 284 293 305 304 303 308 310 308 305 304
330 331 330 332 335 337 337 340 340 334 327 319 314 313 316 318 320 323 321 326 320 312 308 300 293 285 279 278 276 283 289 290 304 307 305 301 301 297
335 334 335 338 343 339 335 331 330 333 330 323 317 317 320 322 322 325 320 322 314 312 319 325 321 302 281 272 275 274 282 289 294 302 308 303 299 295
343 331 330 330 328 328 327 326 326 326 323 319 316 316 318 319 318 320 319 316 311 310 313 319 328 329 320 286 250 270 284 290 298 302 301 299 299 301
342 323 320 320 319 319 317 315 314 316 315 313 313 315 314 313 313 315 317 316 311 308 308 311 317 323 321 315 299 285 296 302 305 303 301 291 289 297
323 311 309 309 309 310 310 308 309 312 315 313 310 308 309 310 310 312 311 309 308 309 310 310 309 304 293 293 296 297 301 299 298 299 304 298 287 291
310 302 296 297 298 301 303 304 304 305 308 309 306 305 305 305 305 306 305 305 303 304 306 306 305 307 297 293 292 297 303 306 308 298 302 304 306 309
298 296 295 293 294 297 299 301 304 305 308 306 306 306 304 300 300 303 304 304 301 299 299 302 308 313 308 294 294 299 309 317 317 317 309 298 288 291
290 291 292 293 293 295 295 296 297 299 301 303 304 303 303 302 299 297 297 295 297 301 308 311 317 317 307 297 296 301 310 318 325 330 324 322 312 298